Weather Roundup
Issued by NWS Springfield, MO

Home | Current Version | Previous Version | Text Only | Print | Product List | Glossary On
Versions: 1 2 3 4 5 6 7 8 9 10 11 12 13 14 15 16 17 18 19 20 21 22 23 24 25 26 27 28 29 30 31 32 33 34 35 36 37 38 39 40 41 42 43 44 45 46 47 48 49 50
000
NZUS99 KSGF 231857
HRRSGF

HOURLY WEATHER
NATIONAL WEATHER SERVICE SPRINGFIELD MO
200 PM CDT FRI JUN 23 2017

......SGF CWA......

CITY           SKY/WX    TMP DP  RH WIND       PRES   REMARKS
SPRINGFIELD    LGT RAIN  72  71  97 N14G22    29.86R
JOPLIN         PTSUNNY   78  71  79 N13G23    29.90R
WEST PLAINS    LGT RAIN  82  70  66 NW7       29.81R
ROLLA          CLOUDY    77  61  57 N15G22    29.82R
BRANSON        TSTM      66  66 100 N8        29.89R

......SURROUNDING SGF CWA......

CITY           SKY/WX    TMP DP  RH WIND       PRES   REMARKS
CHANUTE        SUNNY     87  53  31 N15G23    29.90S
PARSONS        SUNNY     87  55  33 N16G23    29.91R
COFFEYVILLE    SUNNY     87  61  41 N15G28    29.88S
EMPORIA        SUNNY     81  53  37 N15G24    29.96S
ROGERS AR      CLOUDY    72  70  94 N10G17    29.88R
HARRISON AR    TSTM      68  67  96 N21G39    29.89R VSB 3/4

......KANSAS AND MISSOURI......

CITY           SKY/WX    TMP DP  RH WIND       PRES   REMARKS
KANSAS CTY INT PTSUNNY   78  56  46 N20G31    29.94R
SEDALIA        CLOUDY    80  63  55 N9        29.89R
ST JOSEPH      MOSUNNY   78  53  41 N25G35    29.96R
ST LOUIS       MOSUNNY   85  68  56 N17       29.74R
WICHITA        LGT RAIN  80  52  37 N15G21    29.99R
TOPEKA         SUNNY     78  52  40 N16G26    29.96R
OLATHE         SUNNY     81  56  42 N16G24    29.94R

......TENNESSEE......

CITY           SKY/WX    TMP DP  RH WIND       PRES   REMARKS
MEMPHIS        NOT AVBL
NASHVILLE      LGT RAIN  78  74  87 S13       29.71F FOG

......ARKANSAS.......

CITY           SKY/WX    TMP DP  RH WIND       PRES   REMARKS
FAYETTEVILLE   PTSUNNY   85  74  69 W12       29.83S HX  92
FT SMITH       MOSUNNY   92  74  55 W13       29.79F HX 101
LITTLE ROCK    CLOUDY    88  78  72 W8        29.78F HX 101

......OKLAHOMA.......

CITY           SKY/WX    TMP DP  RH WIND       PRES   REMARKS
TULSA          PTSUNNY   85  70  60 N18G28    29.85R
PONCA CITY     SUNNY     89  48  24 NE26G32   29.93R
MCALESTER      SUNNY     95  72  47 N7        29.83F HX 103
OKLAHOMA CITY  CLOUDY    88  70  55 N16       29.91R HX  93

......IOWA............

CITY           SKY/WX    TMP DP  RH WIND       PRES   REMARKS
DES MOINES     NOT AVBL
QUAD CITIES    MOSUNNY   83  56  39 NW13      29.76F

......ILLINOIS........

CITY           SKY/WX    TMP DP  RH WIND       PRES   REMARKS
QUINCY         NOT AVBL
CHICAGO        PTSUNNY   81  46  29 NW12      29.71S




USA.gov is the U.S. government's official web portal to all federal, state and local government web resources and services.